Terminal Aerodrome Forecast
Issued by NWS

Home | Current Version | Previous Version | Text Only | Print | Product List | Glossary On
Versions: 1 2 3 4 5 6 7 8 9 10 11 12 13 14 15 16 17 18 19 20 21 22 23 24 25 26 27 28 29 30 31 32 33 34 35 36 37 38 39 40 41 42 43 44 45 46 47 48 49 50
000
FTAK31 PANC 290541
TAFASN
TAF
PASN 290541Z 2906/3006 25010KT P6SM VCSH FEW015 SCT025 OVC040
      TEMPO 2906/2910 BKN025
     FM291800 19008KT P6SM VCSH SCT025 BKN040
     FM300000 15017KT 5SM -RA BR SCT015 BKN025=

USA.gov is the U.S. government's official web portal to all federal, state and local government web resources and services.